Regional Weather Roundup
Issued by NWS

Current Version | Previous Version | Text Only | Print | Product List | Glossary On
Versions: 1 2 3 4 5 6 7 8 9 10 11 12 13 14 15 16 17 18 19 20 21 22 23 24 25 26 27 28 29 30 31 32 33 34 35 36 37 38 39 40 41 42 43 44 45 46 47 48 49 50
000
ASUS45 KABQ 250110
RWRNM
NEW MEXICO REGIONAL WEATHER ROUNDUP
NATIONAL WEATHER SERVICE ALBUQUERQUE NM
700 PM MDT WED AUG 24 2016

NOTE: "FAIR" MEANS FEW OR NO CLOUDS BELOW 12,000 FEET AGL WITH NO
       SIGNIFICANT WEATHER OR OBSTRUCTIONS TO VISION.

      THIS PRODUCT IS RELEASED AS TWO VERSIONS.  ONE VERSION NEAR
      THE TOP OF THE HOUR CONTAINING PRELIMINARY DATA FROM ALBUQUERQUE
      AND OTHER STATIONS.  A FINAL VERSION WITH ADDITIONAL DATA IS
      ISSUED ABOUT 10 MINUTES AFTER THE HOUR.

NMZ501-503-504-510>518-250200-
NORTHWEST PLATEAU/NORTHCENTRAL MOUNTAINS

CITY           SKY/WX    TMP DP  RH WIND       PRES   REMARKS
FARMINGTON     FAIR      76  39  26 SE6       30.13F
LOS ALAMOS     FAIR      60  46  59 N3        30.29S
SANTA FE       MOCLDY    67  44  43 N9        30.22S
TAOS           CLOUDY    57  46  67 E7        30.30S
ANGEL FIRE     LGT RAIN  49  47  91 N5        30.38F

$$
NMZ402-403-502-505>509-250200-
WESTCENTRAL MOUNTAINS/SOUTHWEST MOUNTAINS

CITY           SKY/WX    TMP DP  RH WIND       PRES   REMARKS
GALLUP         FAIR      74  38  27 NW8       30.22S
GRANTS         FAIR      73  34  23 N8        30.24S
SILVER CITY    FAIR      78  48  34 NW7       30.15R

$$
NMZ407-409-411-412-250200-
SOUTHERN DESERTS

CITY           SKY/WX    TMP DP  RH WIND       PRES   REMARKS
DEMING         MOCLDY    82  48  30 NE14      30.07R
LAS CRUCES     FAIR      85  40  20 W9        30.07R
HOLLOMAN AFB   FAIR      87  45  23 SW8       30.02R
ALAMOGORDO     FAIR      86  43  22 SW6       30.04R
T OR C         FAIR      78  48  34 NW5       30.11R

$$
NMZ519>523-250200-
CENTRAL VALLEYS/CENTRAL HIGHLANDS

CITY           SKY/WX    TMP DP  RH WIND       PRES   REMARKS
ALBUQUERQUE    FAIR      75  47  36 VRB7      30.16S
DOUBLE EAGLE   MOCLDY    72  46  40 NW12      30.20S
MORIARTY ARPT  MOCLDY    67  48  50 N9        30.23R
CLINES CORNERS MOCLDY    64  46  52 N13       30.26S
BELEN          FAIR      76  43  30 N5        30.15R
SOCORRO        FAIR      78  45  31 NE8       30.12R

$$
NMZ524>526-539-540-250200-
SOUTHCENTRAL MOUNTAINS

CITY           SKY/WX    TMP DP  RH WIND       PRES   REMARKS
RUIDOSO          N/A     64  54  68 SE8       30.26R

$$
NMZ527>531-250200-
NORTHEAST HIGHLANDS/NORTHEAST PLAINS

CITY           SKY/WX    TMP DP  RH WIND       PRES   REMARKS
LAS VEGAS      MOCLDY    56  51  84 NE12      30.26F
RATON          CLOUDY    59  48  67 N10       30.27S
CLAYTON        MOCLDY    61  58  90 NW21G29   30.16R

$$
NMZ532>537-250200-
EASTCENTRAL PLAINS

CITY           SKY/WX    TMP DP  RH WIND       PRES   REMARKS
TUCUMCARI      FAIR      80  48  32 W8        30.03R
CANNON AFB     FAIR      79  52  38 S12       30.06F
CLOVIS AIRPORT FAIR      77  52  41 S16       30.07F

$$
NMZ028-029-538-250200-
SOUTHEAST PLAINS

CITY           SKY/WX    TMP DP  RH WIND       PRES   REMARKS
ROSWELL        LGT RAIN  68  61  78 S7        30.05F
ARTESIA        FAIR      75  64  69 SE18      30.04S
CARLSBAD       FAIR      74  63  68 SE9       30.04R
HOBBS          FAIR      73  63  68 S9        30.10S


$$



USA.gov is the U.S. government's official web portal to all federal, state and local government web resources and services.